User: anonymous   Login
Location: Caltech
(34.1382°N, 118.1253°W)
Time: 20:58:10
(UTC-07:00)
Language:

TMSAT-1 - Orbit

View from above orbital plane
View from above orbital plane
View from above satellite
View from above satellite

Ground track
Ground track

The orbit data is extracted from the following two-line orbital elements,

1 25396U 98043C   17262.84692969  .00000013  00000-0  24311-4 0  9999
2 25396  98.5909 204.7442 0003685  61.6840 298.4710 14.24452570997647
Epoch (UTC): 19 September 2017 20:19:34
Eccentricity: 0.0003685
inclination: 98.5909°
perigee height: 807 km
apogee height: 813 km
right ascension of ascending node: 204.7442°
argument of perigee: 61.6840°
revolutions per day: 14.24452570
mean anomaly at epoch: 298.4710°
orbit number at epoch: 99764

The dashed part of the orbit path shows where the satellite is in the earth's shadow,  

DLR